Total_Precipitation_Accumulation
1.90 2.08 2.03 1.96 1.94 1.92 2.27 2.59 2.72 2.52 2.40 2.32 2.10 2.00 2.09 2.21 2.26 1.96 1.82 1.92 1.82 1.68 1.56 1.49 1.47 1.54 1.68 1.82 1.89 1.97 2.12 2.37 2.62 2.78 3.01 3.42 3.87 4.28
2.04 2.09 2.03 2.00 2.08 2.01 2.15 2.40 2.62 2.79 2.60 2.16 1.99 1.90 1.89 1.73 1.81 1.61 1.63 1.82 1.70 1.55 1.49 1.48 1.47 1.46 1.45 1.48 1.53 1.56 1.59 1.66 1.78 1.91 2.02 2.21 2.48 2.90
2.21 2.19 2.24 2.35 2.31 2.22 2.30 2.37 2.51 2.77 2.72 2.25 2.15 2.15 1.99 1.80 1.73 1.64 1.59 1.67 1.68 1.78 1.62 1.50 1.40 1.33 1.31 1.31 1.33 1.39 1.44 1.50 1.56 1.62 1.71 1.80 1.81 1.92
2.33 2.57 2.50 2.53 2.48 2.32 2.41 2.37 2.43 2.71 2.63 2.39 2.40 2.41 2.33 2.12 1.97 1.80 1.63 1.61 1.69 1.89 1.65 1.51 1.43 1.35 1.33 1.32 1.30 1.29 1.30 1.34 1.39 1.41 1.45 1.49 1.53 1.60
2.37 2.46 2.49 2.67 2.54 2.43 2.37 2.34 2.43 2.58 2.67 2.48 2.43 2.59 2.48 2.24 2.10 1.84 1.65 1.72 1.56 1.67 1.64 1.56 1.53 1.45 1.40 1.33 1.29 1.27 1.24 1.23 1.26 1.32 1.39 1.48 1.50 1.46
2.32 2.24 2.34 2.57 2.61 2.60 2.42 2.39 2.51 2.61 2.65 2.57 2.48 2.59 2.61 2.54 2.37 2.15 2.02 1.87 1.70 1.58 1.64 1.54 1.53 1.47 1.39 1.30 1.24 1.23 1.25 1.24 1.21 1.18 1.18 1.20 1.23 1.25
2.10 2.00 2.00 2.23 2.46 2.54 2.30 2.29 2.43 2.46 2.46 2.49 2.48 2.53 2.57 2.71 2.59 2.32 2.09 1.94 1.71 1.54 1.55 1.43 1.38 1.30 1.34 1.35 1.27 1.19 1.13 1.12 1.10 1.08 1.06 1.05 1.04 1.04
2.10 2.01 1.89 1.88 1.90 2.04 2.14 2.27 2.40 2.37 2.37 2.52 2.67 2.72 2.70 2.72 2.72 2.52 2.25 2.01 1.82 1.62 1.66 1.64 1.55 1.48 1.33 1.23 1.28 1.21 1.13 1.10 1.08 1.03 0.99 0.99 1.00 1.00
1.94 1.93 1.65 1.51 1.62 1.54 1.73 1.91 2.02 2.10 2.13 2.29 2.44 2.55 2.68 2.82 2.86 2.62 2.42 2.21 1.96 1.76 1.76 1.61 1.51 1.48 1.39 1.35 1.44 1.28 1.21 1.16 1.13 1.11 1.06 0.99 0.95 0.97
1.65 1.67 1.62 1.54 1.52 1.59 1.61 1.59 1.57 1.64 1.78 1.80 1.90 2.16 2.42 2.62 2.78 2.68 2.58 2.28 1.98 1.75 1.69 1.56 1.41 1.38 1.32 1.36 1.48 1.38 1.26 1.16 1.07 1.02 1.00 0.95 0.89 0.90
1.60 1.63 1.66 1.58 1.74 1.65 1.58 1.60 1.61 1.62 1.67 1.73 1.74 1.90 2.15 2.32 2.45 2.53 2.48 2.33 2.05 1.80 1.72 1.72 1.54 1.46 1.40 1.27 1.28 1.37 1.26 1.16 1.08 1.02 0.96 0.93 0.93 0.93
1.65 1.65 1.65 1.55 1.59 1.49 1.42 1.53 1.52 1.54 1.63 1.64 1.63 1.63 1.72 2.03 2.37 2.23 2.25 2.29 2.06 1.76 1.52 1.58 1.57 1.60 1.50 1.20 1.07 1.08 1.07 1.12 1.15 1.10 1.05 1.01 1.05 0.95
1.77 1.69 1.68 1.62 1.33 1.28 1.26 1.27 1.31 1.39 1.51 1.47 1.39 1.39 1.49 1.66 1.92 2.00 2.00 1.99 1.94 1.68 1.47 1.48 1.44 1.47 1.40 1.16 1.00 0.95 0.94 0.94 0.94 1.00 1.06 1.08 1.08 0.99
1.72 1.72 1.74 1.62 1.32 1.21 1.11 1.09 1.11 1.08 1.12 1.22 1.25 1.27 1.33 1.46 1.61 1.77 1.87 1.93 1.84 1.69 1.61 1.61 1.48 1.40 1.34 1.18 1.01 0.91 0.94 0.95 0.95 0.93 0.95 1.16 1.19 1.13
1.59 1.75 1.64 1.45 1.25 1.08 1.04 1.00 0.95 0.89 1.00 1.14 1.20 1.21 1.22 1.32 1.57 1.85 2.02 2.11 2.05 1.77 1.65 1.62 1.58 1.50 1.50 1.33 1.13 0.99 0.95 0.95 0.96 1.01 1.02 1.08 1.14 1.15
1.43 1.50 1.48 1.44 1.34 1.20 1.09 0.97 0.89 0.94 1.04 1.11 1.22 1.35 1.48 1.57 1.64 1.75 1.92 2.00 2.03 1.83 1.64 1.62 1.59 1.63 1.54 1.32 1.23 1.11 0.99 0.94 0.94 1.02 1.10 1.12 1.19 1.24
1.34 1.35 1.37 1.46 1.48 1.46 1.41 1.31 1.23 1.21 1.18 1.16 1.30 1.44 1.46 1.47 1.49 1.61 1.80 1.85 1.75 1.60 1.49 1.45 1.55 1.58 1.52 1.42 1.28 1.08 0.99 0.92 0.91 1.03 1.20 1.23 1.17 1.17
1.25 1.34 1.48 1.56 1.62 1.63 1.62 1.50 1.36 1.23 1.17 1.21 1.28 1.38 1.43 1.46 1.50 1.63 1.76 1.78 1.64 1.50 1.49 1.40 1.46 1.64 1.62 1.42 1.20 1.11 1.05 0.96 0.94 1.07 1.17 1.23 1.18 1.09
1.06 1.21 1.38 1.45 1.51 1.52 1.53 1.46 1.41 1.36 1.35 1.37 1.42 1.48 1.54 1.54 1.56 1.59 1.70 1.75 1.63 1.50 1.46 1.48 1.44 1.51 1.51 1.22 0.96 0.92 1.06 1.10 1.16 1.23 1.26 1.22 1.14 1.05
0.88 1.01 1.15 1.27 1.39 1.52 1.58 1.57 1.54 1.52 1.47 1.43 1.50 1.54 1.60 1.65 1.62 1.57 1.63 1.70 1.67 1.60 1.54 1.48 1.42 1.35 1.33 1.28 1.12 0.98 1.00 1.16 1.30 1.33 1.29 1.30 1.24 1.18
0.92 0.95 1.01 1.17 1.35 1.51 1.63 1.70 1.72 1.66 1.54 1.52 1.53 1.57 1.57 1.65 1.63 1.56 1.60 1.74 1.74 1.65 1.46 1.26 1.20 1.37 1.50 1.64 1.47 1.08 0.98 1.05 1.17 1.29 1.36 1.44 1.39 1.34
1.00 1.02 1.08 1.18 1.36 1.53 1.61 1.64 1.68 1.64 1.59 1.57 1.53 1.58 1.62 1.64 1.60 1.56 1.58 1.67 1.64 1.56 1.44 1.36 1.48 1.68 1.77 1.71 1.44 1.21 1.15 1.13 1.17 1.24 1.26 1.28 1.29 1.23
1.11 1.07 1.07 1.14 1.30 1.44 1.52 1.55 1.59 1.56 1.51 1.51 1.51 1.54 1.61 1.65 1.68 1.66 1.62 1.65 1.67 1.70 1.78 1.74 1.70 1.72 1.71 1.67 1.55 1.39 1.27 1.22 1.26 1.30 1.18 1.10 1.04 0.98